Starlink 32691

operational
NORAD ID: 62501 Int'l Des: 2025-003 Owner: SPXS Country: US Constellation: starlink
LEOCIRCULAR

Starlink 32691について

説明を読み込み中...

リアルタイム位置

3D地球を読み込み中...

次回通過

高度履歴

Altitude vs Time

uPlot chart will show altitude changes over time

軌道要素

1 62501U 25003Q 26033.32644663 .00029835 00000-0 10886-2 0 9994
2 62501 43.0006 128.6391 0001295 221.8468 138.2284 15.27603735 61258
Epoch: Feb 2, 2026 • Age: 26 hours

現在のステータス

高度 494.6 km
速度 7.62 km/s
衛星直下点 -41.41°S, 88.17°E
打ち上げ日 Jan 6, 2025
運用期間 1 years
タイプ internet

技術仕様

分類 Payload
質量 730.00 kg
乾燥質量 700.00 kg
総質量 730.00 kg
長さ 0.30 m
直径 4.10 m
スパン 29.00 m
形状 Box + pan
製造者 SPXS
バスタイプ Starlink V2M
フェーズステータス In Orbit
所有者/国 SPXS/US

大規模コンステレーション

Loading constellations...